This is the latest recevied weather packets stored in our database for station/object SV9TNF-2. If no packets are shown the sender has not sent any weather packets the latest 10 day(s).
| Time | Temp. | Humidity | Pressure | Rain* | Wind** | Luminosity | Snow |
|---|---|---|---|---|---|---|---|
| 1777793038 | 14.44° C | 53% | 1021.7 hPa | 0 mm | 24.59 m/s, 28° | - | - |
| 1777792738 | 14.44° C | 55% | 1021.7 hPa | 0 mm | 27.72 m/s, 23° | - | - |
| 1777792438 | 14.44° C | 56% | 1021.7 hPa | 0 mm | 25.48 m/s, 7° | - | - |
| 1777792138 | 15° C | 59% | 1021.7 hPa | 0 mm | 22.35 m/s, 348° | - | - |
| 1777791837 | 15° C | 56% | 1021.7 hPa | 0 mm | 23.69 m/s, 342° | - | - |
| 1777791537 | 15.56° C | 58% | 1021.7 hPa | 0 mm | 21.01 m/s, 90° | - | - |
| 1777791237 | 15° C | 56% | 1021.7 hPa | 0 mm | 26.82 m/s, 7° | - | - |
| 1777790937 | 14.44° C | 57% | 1021.7 hPa | 0 mm | 24.59 m/s, 87° | - | - |
| 1777790637 | 14.44° C | 58% | 1021.7 hPa | 0 mm | 38 m/s, 18° | - | - |
| 1777790337 | 15° C | 59% | 1021.7 hPa | 1.27 mm | 18.78 m/s, 58° | - | - |
| 1777790037 | 14.44° C | 55% | 1021 hPa | 1.27 mm | 36.66 m/s, 46° | - | - |
| 1777789737 | 14.44° C | 60% | 1021 hPa | 0 mm | 17.43 m/s, 79° | - | - |
| 1777789437 | 15° C | 65% | 1021 hPa | 0 mm | 32.63 m/s, 339° | - | - |
| 1777789137 | 13.33° C | 66% | 1021 hPa | 0 mm | 17.88 m/s, 8° | - | - |
| 1777788836 | 13.33° C | 64% | 1021 hPa | 0 mm | 9.83 m/s, 140° | - | - |
| 1777788536 | 12.78° C | 64% | 1021.7 hPa | 0 mm | 8.05 m/s, 39° | - | - |
| 1777788236 | 12.78° C | 65% | 1021.7 hPa | 0 mm | 10.73 m/s, 279° | - | - |
| 1777787936 | 12.78° C | 68% | 1021 hPa | 0 mm | 14.75 m/s, 14° | - | - |
| 1777787637 | 13.33° C | 64% | 1021 hPa | 0 mm | 12.07 m/s, 358° | - | - |
| 1777787336 | 13.89° C | 63% | 1021.7 hPa | 0 mm | 7.15 m/s, 63° | - | - |
| 1777787036 | 13.89° C | 61% | 1021.7 hPa | 0 mm | 9.83 m/s, 17° | - | - |
| 1777786736 | 14.44° C | 59% | 1021.7 hPa | 0 mm | 5.81 m/s, 301° | - | - |
| 1777786436 | 13.89° C | 62% | 1021.7 hPa | 0 mm | 8.05 m/s, 59° | - | - |
| 1777786136 | 13.33° C | 63% | 1021.7 hPa | 0 mm | 3.13 m/s, 66° | - | - |
| 1777785835 | 12.78° C | 62% | 1021.7 hPa | 0 mm | 10.73 m/s, 298° | - | - |
* Rain latest hour (hover to see other rain measurements)
** Current wind speed in m/s (hover to see current wind gust speed)